Regional Weather Roundup
Issued by NWS

Home | Current Version | Previous Version | Text Only | Print | Product List | Glossary On
Versions: 1 2 3 4 5 6 7 8 9 10 11 12 13 14 15 16 17 18 19 20 21 22 23 24 25 26 27 28 29 30 31 32 33 34 35 36 37 38 39 40 41 42 43 44 45 46 47 48 49 50
000
ASUS42 KFFC 161710
RWRGA
WEATHER ROUNDUP FOR GEORGIA
NATIONAL WEATHER SERVICE PEACHTREE CITY GA
1200 PM EST MON JAN 16 2017

NOTE: "FAIR" INDICATES FEW OR NO CLOUDS BELOW 12,000 FEET WITH NO
SIGNIFICANT WEATHER AND/OR OBSTRUCTIONS TO VISIBILITY.

* = USE WITH CAUTION. THE STATIONS MARKED WITH AN ASTERISK MAY NOT
REPORT WEATHER SUCH AS PRECIPITATION, FOG, OR THUNDER AND ARE NOT
QUALITY CONTROLLED BY NWS.

THE REMARK "TC" DENOTES TEMPERATURE READING IN DEGREES CELSIUS.

GAZ001>058-161800-
NORTH GEORGIA

CITY           SKY/WX    TMP DP  RH WIND       PRES   REMARKS
ATLANTA        CLOUDY    61  55  81 SE6       30.31F
ATHENS         CLOUDY    59  52  77 NE7       30.34F
CHAMBLEE       CLOUDY    64  53  67 E7        30.31F
PEACHTREE CITY CLOUDY    65  57  75 VRB3      30.31F
ROME           CLOUDY    62  51  67 CALM      30.29F
WEST ATLANTA   CLOUDY    62  53  72 VRB3      30.31F
CARTERSVILLE   CLOUDY    61  52  72 VRB3      30.31F


CITY           SKY/WX    TMP DP  RH WIND       PRES   REMARKS
DALTON*        CLOUDY    59  54  82 CALM      30.30F
LAWRENCEVILLE* PTSUNNY   61  52  72 E7        30.31F
MARIETTA       PTSUNNY   63  53  72 SE6       30.31F
KENNESAW*      PTSUNNY   61  54  77 CALM        N/A
CANTON*        CLOUDY    61  46  59 E6        30.33F
$$

GAZ059>098-102>109-161800-
CENTRAL GEORGIA

CITY           SKY/WX    TMP DP  RH WIND       PRES   REMARKS
AUGUSTA-BUSH   CLOUDY    70  56  61 E5        30.34F
AUGUSTA-DANIEL CLOUDY    66  54  65 E7        30.35F
COLUMBUS       MOSUNNY   70  56  61 SW7       30.29F
MACON          CLOUDY    65  58  78 S6        30.32F
ROBINS AFB     PTSUNNY   67  58  73 S6        30.31F


CITY           SKY/WX    TMP DP  RH WIND       PRES   REMARKS
LAGRANGE*      MOSUNNY   72  60  64 S8G16     30.29F
SYLVANIA*      CLOUDY   N/A N/A N/A CALM      30.36F
MILLEDGEVILLE* CLOUDY    64  61  88 CALM      30.32F
$$

GAZ099>101-110>166-161800-
SOUTH GEORGIA

CITY           SKY/WX    TMP DP  RH WIND       PRES   REMARKS
SAVANNAH       PTSUNNY   70  58  65 E6        30.34F
VALDOSTA       SUNNY     74  55  51 S3        30.30F
ALMA           SUNNY     75  58  55 VRB3      30.32F
ST SIMONS      PTSUNNY   70  60  70 E8        30.32F
FT STEWART     PTSUNNY   71  60  67 CALM      30.31F
ALBANY         CLOUDY    72  58  61 S9        30.32F
HUNTER AFB     MOSUNNY   69  58  68 VRB5      30.32F
MOODY AFB      SUNNY     75  54  48 SE7       30.28F
BRUNSWICK      CLOUDY    72  63  73 NE7       30.33F


CITY           SKY/WX    TMP DP  RH WIND       PRES   REMARKS
BAINBRIDGE*    MOSUNNY   75  59  57 SE9       30.30F
MOULTRIE*      MOSUNNY   72  59  64 CALM      30.31F
VIDALIA*       MOSUNNY   73  61  64 S6        30.32F
WAYCROSS*      SUNNY     77  62  59 SW6       30.32F
DOUGLAS*       SUNNY     73  54  49 S6        30.33F
$$



USA.gov is the U.S. government's official web portal to all federal, state and local government web resources and services.